Simultaneous Nadir Overpasses (SNOs) Predictions

Prediction of SNOs between GOES-15 and NOAA-20 Satellite Orbit:

Table of predicted SNOs for the next 14.0 days since TLE Epoch: 10/8/2022
Index Date Time (GOES-15) GOES-15 Lat,Lon NOAA-20 Lat,Lon Distance(km) Time Diff (sec)
1 10/08/2022 21:58:38 -0.25,-128.24 -0.23,-128.08 17.56 80
2 10/11/2022 09:59:01 0.24,-128.35 0.35,-128.83 54.48 80
3 10/12/2022 09:42:57 0.25,-128.37 -0.68,-124.30 463.46 80
4 10/13/2022 22:02:13 -0.23,-128.31 -0.52,-129.61 147.78 80
5 10/14/2022 21:46:09 -0.24,-128.32 0.50,-125.08 370.14 80
6 10/16/2022 10:05:17 0.22,-128.41 0.62,-130.36 221.03 80
7 10/17/2022 09:49:12 0.22,-128.42 -0.35,-125.82 296.24 80
8 10/18/2022 22:08:28 -0.20,-128.35 -0.84,-131.12 316.67 80
9 10/19/2022 21:52:23 -0.21,-128.36 0.19,-126.60 200.76 80
10 10/21/2022 10:11:32 0.18,-128.45 0.93,-131.88 390.31 80
